Location: Boiro
(42.6475°N, 8.8834°W)
Time: 17:49:57
(UTC+01:00)

Explorer 11/Cluster Stage 4 - Pass Details

Date: 08 December 2021
Orbit: 467 x 1255 km, 28.8° (Epoch: 23 January)

Event Time Altitude Azimuth Distance (km) Brightness Sun altitude
Exits shadow 07:11:32 - 232° (SW) 3,173 9.3 -18.0°
Reaches altitude 10° 07:13:20 10° 219° (SW) 3,005 9.3 -17.7°
Maximum altitude 07:15:18 11° 204° (SSW) 2,974 9.4 -17.3°
Drops below altitude 10° 07:17:20 10° 188° (S) 3,109 9.7 -17.0°
Sets 07:23:05 0° 157° (SSE) 4,165 10.9 -15.9°
